Tracking 18840 objects as of 18-November-2017
HD Live streaming from Space Station
objects crossing your sky now

FLOCK 2K 31

Track FLOCK 2K 31 now!
10-day predictions
FLOCK 2K 31 is classified as:


NORAD ID: 42869
Int'l Code: 2017-042AW
Perigee: 460.8 km
Apogee: 477.3 km
Inclination: 97.0 °
Period: 93.8 minutes
Semi major axis: 6840 km
RCS: Unknown
Launch date: July 14, 2017
Source: United States (US)
Launch site: TYURATAM MISSILE AND SPACE COMPLEX (TTMTR)
aabbcc
Your satellite tracking list
Your tracking list is empty




NASA's NSSDC Master Catalog

Two Line Element Set (TLE):
1 42869U 17042AW  17321.79584360 +.00012353 +00000-0 +36886-3 0  9997
2 42869 096.9950 224.1195 0012035 146.2742 213.9270 15.34668651019199
Source of the keplerian elements: AFSPC